Regional Weather Roundup
Issued by NWS

Home | Current Version | Previous Version | Graphics & Text | Print | Product List | Glossary On
Versions: 1 2 3 4 5 6 7 8 9 10 11 12 13 14 15 16 17 18 19 20 21 22 23 24 25 26 27 28 29 30 31 32 33 34 35 36 37 38 39 40 41 42 43 44 45 46 47 48 49 50
000
ASUS43 KBIS 300310
RWRND

NORTH DAKOTA REGIONAL WEATHER ROUNDUP
NATIONAL WEATHER SERVICE BISMARCK ND
1000 PM CDT FRI JUL 29 2016

NOTE: "FAIR" INDICATES FEW OR NO CLOUDS BELOW 12,000 FEET WITH NO
SIGNIFICANT WEATHER AND/OR OBSTRUCTIONS TO VISIBILITY.


NDZ001>003-009>011-017-300400-
NORTHWEST NORTH DAKOTA

CITY           SKY/WX    TMP DP  RH WIND       PRES   REMARKS
WILLISTON      CLEAR     72  57  59 E7        29.96S
MINOT          PTCLDY    73  59  61 SE7       29.95F
MINOT AFB      PTCLDY    67  57  72 CALM      29.94S
$$

NDZ018>021-031>035-040>046-300400-
SOUTHWEST NORTH DAKOTA

CITY           SKY/WX    TMP DP  RH WIND       PRES   REMARKS
BISMARCK       PTCLDY    67  62  84 E7        29.98S
DICKINSON      CLEAR     66  59  78 SE9       29.97R
GARRISON         N/A     68  62  81 E3        29.97S
HETTINGER ARPT CLEAR     70  57  63 E9        29.99S
$$

NDZ004>008-012>016-024-026-027-054-300400-
NORTHEAST NORTH DAKOTA

CITY           SKY/WX    TMP DP  RH WIND       PRES   REMARKS
GRAND FORKS    PTCLDY    71  57  61 E3        29.98S
GRND FRKS AFB  CLEAR     66  58  76 CALM      29.99S
DEVILS LAKE    PTCLDY    65  62  90 CALM      30.00S
$$

NDZ022-023-025-028>030-036>039-047>053-300400-
SOUTHEAST NORTH DAKOTA

CITY           SKY/WX    TMP DP  RH WIND       PRES   REMARKS
FARGO          CLEAR     71  62  73 S5        30.00R
JAMESTOWN      MOCLDY    68  63  84 SE6       30.00S
$$





USA.gov is the U.S. government's official web portal to all federal, state and local government web resources and services.